#timestamp,LO_Frequency,Hit,StdDev 
1665255615.4,286047002.4,N
1665255635.2,286047001.3,N
1665255655.0,286046999.1,N
1665255655.9,286046999.1,N
1665255675.8,286046995.4,N
1665255695.6,286046996.3,N
1665255715.5,286046996.4,N
1665255735.3,286046997.7,N
1665255755.1,286046993.7,N
1665255775.9,286046994.3,N
1665255795.7,286046993.2,N
1665255815.6,286046991.0,N
1665255835.4,286046992.5,N
1665255855.2,286046991.9,N
1665255875.1,286046991.9,N
1665255876.0,286046991.9,N
1665255895.8,286046988.8,N
1665255915.6,286046993.2,N
1665255935.5,286046993.5,N
1665255955.3,286046997.6,N
1665255975.1,286046994.3,N
1665255995.9,286046992.2,N
1665256015.7,286046991.9,N
1665256035.6,286046991.8,N
1665256055.4,286046992.4,N
1665256075.2,286046993.0,N
1665256095.1,286046993.9,N
1665256096.0,286046993.9,N
1665256115.8,286046994.1,N
1665256135.7,286046993.7,N
1665256155.5,286046991.8,N
1665256175.3,286046992.9,N
1665256195.2,286046991.1,Y
1665256215.9,286046995.5,P
1665256235.7,286046996.1,P
1665256255.6,286046992.5,P
1665256275.4,286046989.9,Y
1665256295.3,286046994.5,P
1665256315.1,286046994.7,P
1665256316.0,286046994.7,P
1665256335.8,286046991.7,Y
1665256355.7,286046996.7,P
1665256375.5,286047000.5,N
1665256395.3,286047005.7,N
1665256415.2,286047003.3,N
1665256435.0,286046999.8,N
1665256435.9,286046999.8,N
1665256455.8,286047000.2,N
1665256475.6,286047004.1,N
1665256495.4,286047003.7,N
1665256515.3,286047000.2,N
1665256535.1,286047002.8,N
1665256555.8,286047000.5,N
1665256575.7,286047001.9,N
1665256595.5,286047001.6,N
1665256615.4,286047002.5,N
1665256635.2,286047001.6,N
1665256655.0,286047002.2,N
1665256655.9,286047002.2,N
1665256675.8,286046998.2,N
1665256695.6,286046998.5,N
1665256715.4,286047002.0,N
1665256735.3,286047002.5,N
1665256755.1,286047001.2,N
1665256775.9,286046998.5,N
1665256795.7,286046999.0,N
1665256815.5,286047000.8,N
1665256835.4,286046997.4,N
1665256855.2,286046995.5,N
1665256875.0,286046993.5,N
1665256875.9,286046993.5,N
1665256895.8,286046991.9,N
1665256915.6,286046994.8,N
1665256935.5,286046996.1,N
1665256955.3,286046993.6,N
1665256975.1,286046996.1,N
1665256995.9,286046997.7,N
1665257015.7,286046995.3,N
1665257035.5,286046999.0,N
1665257055.4,286046995.5,N
1665257075.2,286046995.4,N
1665257095.1,286046997.4,N
1665257096.0,286046997.4,N
1665257115.8,286046997.2,N
1665257135.6,286046997.8,N
1665257155.5,286046999.5,N
1665257175.3,286046997.5,N
1665257195.1,286046995.8,N
1665257215.9,286046993.4,N
1665257235.7,286046991.9,Y
1665257255.6,286046994.5,P
1665257275.4,286046996.4,N
1665257295.2,286046993.9,P
1665257315.1,286046995.5,Y
1665257316.0,286046995.5,P
1665257335.8,286046999.1,P
1665257355.7,286046994.9,P
1665257375.5,286046997.8,N
1665257395.3,286046999.6,N
1665257415.2,286046995.7,N
1665257435.9,286046996.4,N
1665257455.7,286046997.6,N
1665257475.6,286046998.0,N
1665257495.4,286046996.0,N
1665257515.3,286046995.7,N
1665257535.1,286046993.5,Y
1665257536.0,286046993.5,P
1665257555.8,286046997.6,N
1665257575.7,286046995.1,N
1665257595.5,286046995.1,Y
1665257615.4,286047001.0,P
1665257635.2,286047000.9,N
1665257655.0,286047002.8,N
1665257655.9,286047002.8,N
1665257675.8,286047002.4,N
1665257695.6,286047000.2,N
1665257715.4,286047003.8,N
1665257735.3,286047000.9,N
1665257755.1,286047000.2,N
1665257775.9,286047001.7,N
1665257795.7,286046999.9,N
1665257815.5,286047000.7,N
1665257835.4,286046998.5,N
1665257855.2,286046999.2,N
1665257875.1,286046999.4,N
1665257876.0,286046999.4,N
1665257895.8,286046998.8,N
1665257915.6,286046996.5,N
1665257935.5,286046999.1,N
1665257955.3,286046998.5,N
1665257975.1,286046998.2,N
1665257995.9,286047000.3,N
1665258015.7,286047000.8,N
1665258035.6,286047000.2,N
1665258055.4,286047000.3,N
1665258075.2,286047003.8,N
1665258095.1,286046999.9,N
1665258096.0,286046999.9,N
1665258115.8,286047002.0,N
1665258135.6,286047000.9,N
1665258155.5,286046998.5,N
1665258175.3,286046999.4,N
1665258195.2,286047001.3,N
1665258215.9,286047008.9,Y
1665258235.7,286047005.8,P
1665258255.6,286047002.6,N
1665258275.4,286046999.7,N
1665258295.2,286047001.9,N
1665258315.1,286047001.0,N
1665258316.0,286047001.0,N
1665258335.8,286047002.6,N
1665258355.7,286046999.7,N
1665258375.5,286046998.2,N
1665258395.3,286046998.9,N
1665258415.2,286046997.9,N
1665258435.0,286046997.3,N
1665258435.9,286046997.3,N
1665258455.7,286046998.1,N
1665258475.6,286047001.0,N
1665258495.4,286047002.0,N
1665258515.3,286047001.0,N
1665258535.1,286046998.1,N
1665258536.0,286046998.1,N
1665258555.8,286046998.7,N
1665258575.7,286046997.5,N
1665258595.5,286046999.0,N
1665258615.3,286046997.1,N
1665258635.2,286046999.2,N
1665258655.0,286046994.9,N
1665258655.9,286046994.9,N
1665258675.8,286046999.1,N
1665258695.6,286046995.0,N
1665258715.4,286046994.7,N
1665258735.3,286046992.2,Y
1665258755.1,286046992.1,P
1665258775.9,286046993.5,N
1665258795.7,286046993.4,N
1665258815.5,286046993.8,N
1665258835.4,286046996.0,N
1665258855.2,286046993.7,N
1665258875.0,286046993.7,N
1665258875.9,286046993.7,Y
1665258895.8,286047001.0,P
1665258915.6,286047000.4,N
1665258935.5,286047000.3,N
1665258955.3,286047002.4,N
1665258975.1,286047004.0,N
1665258995.9,286047005.3,N
1665259015.7,286047007.2,N
1665259035.5,286047005.3,N
1665259055.4,286047002.9,N
1665259075.2,286047002.3,N
1665259095.1,286046999.7,N
1665259096.0,286046999.7,N
1665259115.8,286047004.4,N
1665259135.6,286047004.5,N
1665259155.5,286047005.2,N
1665259175.3,286047004.9,N
1665259195.1,286047005.9,N
